This is the latest recevied weather packets stored in our database for station/object OM3WYM-13. If no packets are shown the sender has not sent any weather packets the latest 10 day(s).
| Time | Temp. | Humidity | Pressure | Rain* | Wind** | Luminosity | Snow |
|---|---|---|---|---|---|---|---|
| 1777936208 | 6.67° C | 72% | 1016.7 hPa | - | - | - | - |
| 1777935608 | 6.67° C | 71% | 1016.8 hPa | - | - | - | - |
| 1777935008 | 7.22° C | 71% | 1016.7 hPa | - | - | - | - |
| 1777934408 | 6.67° C | 72% | 1016.8 hPa | - | - | - | - |
| 1777933808 | 7.22° C | 71% | 1016.8 hPa | - | - | - | - |
| 1777933208 | 7.22° C | 69% | 1016.8 hPa | - | - | - | - |
| 1777932608 | 7.78° C | 68% | 1016.8 hPa | - | - | - | - |
| 1777932008 | 7.78° C | 68% | 1016.7 hPa | - | - | - | - |
| 1777931409 | 7.78° C | 69% | 1016.7 hPa | - | - | - | - |
| 1777930808 | 8.33° C | 67% | 1016.7 hPa | - | - | - | - |
| 1777930208 | 8.33° C | 67% | 1016.6 hPa | - | - | - | - |
| 1777929608 | 8.89° C | 66% | 1016.6 hPa | - | - | - | - |
| 1777929008 | 8.89° C | 66% | 1016.6 hPa | - | - | - | - |
| 1777928408 | 9.44° C | 65% | 1016.5 hPa | - | - | - | - |
| 1777927808 | 9.44° C | 65% | 1016.5 hPa | - | - | - | - |
| 1777927208 | 9.44° C | 64% | 1016.3 hPa | - | - | - | - |
| 1777926608 | 10° C | 63% | 1016.2 hPa | - | - | - | - |
| 1777926008 | 10.56° C | 61% | 1016.2 hPa | - | - | - | - |
| 1777925408 | 10.56° C | 60% | 1016.1 hPa | - | - | - | - |
| 1777924808 | 11.11° C | 59% | 1016.1 hPa | - | - | - | - |
| 1777924209 | 11.67° C | 58% | 1015.9 hPa | - | - | - | - |
| 1777923609 | 11.67° C | 57% | 1016 hPa | - | - | - | - |
| 1777923008 | 12.22° C | 58% | 1015.9 hPa | - | - | - | - |
| 1777922409 | 12.78° C | 54% | 1015.6 hPa | - | - | - | - |
| 1777921808 | 13.33° C | 52% | 1015.8 hPa | - | - | - | - |
* Rain since midnight (hover to see other rain measurements)
** Current wind speed in m/s (hover to see current wind gust speed)